Tracking 27107 objects as of 20-Mar-2023
HD Live streaming from Space Station
objects crossing your sky now

APRIZESAT 1

Track APRIZESAT 1 now!
10-day predictions
APRIZESAT 1 is classified as:


NORAD ID: 28372
Int'l Code: 2004-025G
Perigee: 699.5 km
Apogee: 765.8 km
Inclination: 98.5 °
Period: 99.3 minutes
Semi major axis: 7103 km
RCS: 0.0588 m2 (small)
Launch date: June 29, 2004
Source: United States (US)
Launch site: TYURATAM MISSILE AND SPACE COMPLEX (TTMTR)

Messaging services.
Your satellite tracking list
Your tracking list is empty




NASA's NSSDC Master Catalog

Two Line Element Set (TLE):
1 28372U 04025G   23078.88695966  .00000635  00000-0  17383-3 0  9999
2 28372  98.5350  47.5231 0046637 156.1839 204.1527 14.50048802990017
Source of the keplerian elements: AFSPC